This demonstration page uses our WeatherBlox Daily Observations layout. Learn more.

Left ArrowRight Arrow

53.62937, 11.41316

Hourly Observations for August 14, 2022

Temp ( °F °C ) Dew Point ( °F °C ) Humidity (%) Winds ( mph kmh ) Pressure ( in mb ) Visibility ( mi km ) Precip ( " mm )
12:20 am 00:20 Mostly Cloudy 66 19 59 15 78 78 NE 3 6 30.03 1017 6 10 0.00 0.00
12:50 am 00:50 Mostly Clear 66 19 57 14 73 73 ENE 3 6 30.00 1016 6 10 0.00 0.00
1:20 am 01:20 Mostly Clear 66 19 57 14 73 73 Calm 30.00 1016 6 10 0.00 0.00
1:50 am 01:50 Mostly Clear 66 19 57 14 73 73 E 2 4 30.00 1016 6 10 0.00 0.00
2:20 am 02:20 Mostly Clear 64 18 57 14 77 77 Calm 30.00 1016 6 10 0.00 0.00
2:50 am 02:50 Partly Cloudy 63 17 57 14 82 82 VRB 1 2 29.97 1015 6 10 0.00 0.00
3:20 am 03:20 Mostly Clear 64 18 59 15 83 83 E 3 6 29.97 1015 6 10 0.00 0.00
3:50 am 03:50 Partly Cloudy 64 18 57 14 77 77 VRB 2 4 29.97 1015 6 10 0.00 0.00
4:20 am 04:20 Mostly Cloudy 63 17 59 15 88 88 VRB 2 4 29.97 1015 6 10 0.00 0.00
4:50 am 04:50 Mostly Clear 63 17 57 14 82 82 VRB 2 4 29.97 1015 6 10 0.00 0.00
5:20 am 05:20 Clear 61 16 57 14 88 88 VRB 1 2 29.94 1014 6 10 0.00 0.00
5:50 am 05:50 Clear 61 16 59 15 94 94 ENE 2 4 29.94 1014 6 10 0.00 0.00
6:20 am 06:20 Mostly Sunny 61 16 57 14 88 88 Calm 29.94 1014 6 10 0.00 0.00
6:50 am 06:50 Mostly Sunny 63 17 59 15 88 88 Calm 29.94 1014 6 10 0.00 0.00
7:20 am 07:20 Mostly Sunny 64 18 61 16 88 88 Calm 29.94 1014 6 10 0.00 0.00
7:50 am 07:50 Mostly Sunny 66 19 63 17 88 88 ENE 3 6 29.94 1014 6 10 0.00 0.00
8:20 am 08:20 Mostly Sunny 68 20 63 17 83 83 E 5 7 29.94 1014 6 10 0.00 0.00
8:50 am 08:50 Mostly Sunny 70 21 63 17 78 78 E 5 7 29.91 1013 6 10 0.00 0.00
9:20 am 09:20 Mostly Sunny 70 21 63 17 78 78 E 6 9 29.91 1013 6 10 0.00 0.00
9:50 am 09:50 Mostly Sunny 73 23 63 17 69 69 E 5 7 29.91 1013 6 10 0.00 0.00
10:20 am 10:20 Mostly Sunny 77 25 64 18 65 65 E 5 7 29.91 1013 6 10 0.00 0.00
10:50 am 10:50 Mostly Sunny 75 24 63 17 65 65 E 6 9 29.91 1013 6 10 0.00 0.00
11:20 am 11:20 Mostly Sunny 77 25 63 17 61 61 E 7 11 29.91 1013 6 10 0.00 0.00
11:50 am 11:50 Mostly Sunny 81 27 63 17 54 54 E 7 11 29.88 1012 6 10 0.00 0.00
12:20 pm 12:20 Mostly Sunny 81 27 64 18 58 58 E 6 9 29.88 1012 6 10 0.00 0.00
12:50 pm 12:50 Mostly Sunny 82 28 64 18 55 55 NE 6 9 29.88 1012 6 10 0.00 0.00
1:20 pm 13:20 Mostly Sunny 82 28 64 18 55 55 NNE 12 19 29.85 1011 6 10 0.00 0.00
1:50 pm 13:50 Mostly Sunny 82 28 64 18 55 55 NNE 9 15 29.85 1011 6 10 0.00 0.00
2:20 pm 14:20 Mostly Sunny 82 28 64 18 55 55 NNE 10 17 29.85 1011 6 10 0.00 0.00
2:50 pm 14:50 Mostly Sunny 82 28 64 18 55 55 NNE 10 17 29.82 1010 6 10 0.00 0.00
3:20 pm 15:20 Mostly Sunny 84 29 64 18 52 52 NNE 12 19 29.82 1010 6 10 0.00 0.00
3:50 pm 15:50 Mostly Sunny 84 29 63 17 48 48 NNE 13 20 29.82 1010 6 10 0.00 0.00
4:20 pm 16:20 Mostly Sunny 82 28 63 17 51 51 NNE 12 19 29.79 1009 6 10 0.00 0.00
4:50 pm 16:50 Mostly Sunny 82 28 63 17 51 51 NE 10 17 29.79 1009 6 10 0.00 0.00
5:20 pm 17:20 Mostly Sunny 82 28 63 17 51 51 NNE 12 19 29.79 1009 6 10 0.00 0.00
5:50 pm 17:50 Mostly Sunny 82 28 63 17 51 51 NE 12 19 29.76 1008 6 10 0.00 0.00
6:20 pm 18:20 Mostly Sunny 82 28 63 17 51 51 NE 9 15 29.76 1008 6 10 0.00 0.00
6:50 pm 18:50 Mostly Sunny 81 27 61 16 51 51 NE 9 15 29.76 1008 6 10 0.00 0.00
7:20 pm 19:20 Mostly Sunny 81 27 61 16 51 51 NE 9 15 29.76 1008 6 10 0.00 0.00
7:50 pm 19:50 Mostly Sunny 79 26 61 16 54 54 NNE 6 9 29.76 1008 6 10 0.00 0.00
8:20 pm 20:20 Mostly Sunny 75 24 61 16 61 61 NE 7 11 29.76 1008 6 10 0.00 0.00
8:50 pm 20:50 Mostly Clear 73 23 59 15 61 61 ENE 8 13 29.76 1008 6 10 0.00 0.00
9:20 pm 21:20 Mostly Clear 72 22 59 15 65 65 E 8 13 29.76 1008 6 10 0.00 0.00
9:50 pm 21:50 Clear 72 22 59 15 65 65 ENE 7 11 29.76 1008 6 10 0.00 0.00
10:20 pm 22:20 Clear 70 21 59 15 69 69 ENE 5 7 29.76 1008 6 10 0.00 0.00
10:50 pm 22:50 Mostly Clear 68 20 57 14 68 68 NE 5 7 29.76 1008 6 10 0.00 0.00
11:20 pm 23:20 Clear 66 19 59 15 78 78 E 5 7 29.76 1008 6 10 0.00 0.00
11:50 pm 23:50 Clear 66 19 57 14 73 73 E 5 7 29.76 1008 6 10 0.00 0.00

Powered by AerisWeather